| time (UTC) | temp F | wind direction | speed MPH | gust MPH | rain 1hr in | rain 24hr in | rain mn in | humidity % | barometer mb |
| 20260506035306 | 42 | 265 | 3.0 | 6.0 | 0.00 | 0.00 | 0.00 | 39 | 1018.7 |
| 20260506034804 | 43 | 261 | 0.0 | 6.0 | 0.00 | 0.00 | 0.00 | 39 | 1018.6 |
| 20260506034304 | 43 | 293 | 3.0 | 8.0 | 0.00 | 0.00 | 0.00 | 38 | 1018.6 |
| 20260506033804 | 43 | 268 | 3.0 | 8.0 | 0.00 | 0.00 | 0.00 | 38 | 1018.7 |
| 20260506032804 | 44 | 282 | 3.0 | 7.0 | 0.00 | 0.00 | 0.00 | 38 | 1018.6 |
| 20260506031804 | 44 | 260 | 2.0 | 6.0 | 0.00 | 0.00 | 0.00 | 37 | 1018.4 |
| 20260506031304 | 44 | 261 | 2.0 | 6.0 | 0.00 | 0.00 | 0.00 | 37 | 1018.5 |
| 20260506030804 | 44 | 239 | 2.0 | 6.0 | 0.00 | 0.00 | 0.00 | 37 | 1018.4 |
| 20260506030304 | 45 | 243 | 2.0 | 5.0 | 0.00 | 0.00 | 0.00 | 37 | 1018.4 |
| 20260506025306 | 45 | 258 | 3.0 | 7.0 | 0.00 | 0.00 | 0.00 | 35 | 1018.3 |
| 20260506024803 | 45 | 271 | 2.0 | 7.0 | 0.00 | 0.00 | 0.00 | 35 | 1018.4 |
| 20260506024304 | 46 | 214 | 2.0 | 5.0 | 0.00 | 0.00 | 0.00 | 34 | 1018.2 |
| 20260506023804 | 46 | 258 | 3.0 | 8.0 | 0.00 | 0.00 | 0.00 | 33 | 1018.4 |
| 20260506021804 | 47 | 244 | 2.0 | 5.0 | 0.00 | 0.00 | 0.00 | 32 | 1018.3 |
| 20260506021304 | 47 | 227 | 3.0 | 6.0 | 0.00 | 0.00 | 0.00 | 31 | 1018.3 |
| 20260506020804 | 47 | 288 | 1.0 | 7.0 | 0.00 | 0.00 | 0.00 | 31 | 1018.4 |
| 20260506020304 | 48 | 215 | 2.0 | 7.0 | 0.00 | 0.00 | 0.00 | 31 | 1018.3 |
| 20260506015306 | 48 | 141 | 2.0 | 5.0 | 0.00 | 0.00 | 0.00 | 30 | 1018.2 |
| 20260506014803 | 48 | 238 | 2.0 | 7.0 | 0.00 | 0.00 | 0.00 | 30 | 1018.2 |
| 20260506013804 | 48 | 225 | 2.0 | 5.0 | 0.00 | 0.00 | 0.00 | 29 | 1018.3 |
| 20260506013304 | 48 | 225 | 1.0 | 5.0 | 0.00 | 0.00 | 0.00 | 29 | 1018.3 |
| 20260506012804 | 49 | 243 | 2.0 | 5.0 | 0.00 | 0.00 | 0.00 | 29 | 1018.5 |
| 20260506012307 | 49 | 275 | 2.0 | 6.0 | 0.00 | 0.00 | 0.00 | 29 | 1018.4 |
| 20260506011804 | 49 | 117 | 1.0 | 5.0 | 0.00 | 0.00 | 0.00 | 28 | 1018.4 |
| 20260506010804 | 49 | 239 | 2.0 | 6.0 | 0.00 | 0.00 | 0.00 | 29 | 1018.6 |
| 20260506010304 | 49 | 138 | 1.0 | 7.0 | 0.00 | 0.00 | 0.00 | 29 | 1018.6 |
| 20260506005804 | 49 | 120 | 2.0 | 7.0 | 0.00 | 0.00 | 0.00 | 28 | 1018.6 |
| 20260506005306 | 49 | 238 | 2.0 | 5.0 | 0.00 | 0.00 | 0.00 | 29 | 1018.5 |
| 20260506004805 | 49 | 144 | 2.0 | 5.0 | 0.00 | 0.00 | 0.00 | 28 | 1018.5 |
| 20260506003804 | 50 | 260 | 2.0 | 6.0 | 0.00 | 0.00 | 0.00 | 28 | 1018.4 |
| 20260506003304 | 49 | 243 | 3.0 | 6.0 | 0.00 | 0.00 | 0.00 | 28 | 1018.5 |
| 20260506002805 | 50 | 208 | 1.0 | 7.0 | 0.00 | 0.00 | 0.00 | 28 | 1018.7 |
| 20260506002306 | 50 | 209 | 1.0 | 2.0 | 0.00 | 0.00 | 0.00 | 28 | 1018.5 |
| 20260506001804 | 50 | 193 | 2.0 | 7.0 | 0.00 | 0.00 | 0.00 | 28 | 1018.8 |
| 20260506000804 | 50 | 110 | 3.0 | 6.0 | 0.00 | 0.00 | 0.00 | 29 | 1018.7 |
| 20260506000303 | 50 | 247 | 2.0 | 7.0 | 0.00 | 0.00 | 0.00 | 28 | 1018.8 |
| 20260505235305 | 50 | 198 | 2.0 | 7.0 | 0.00 | 0.00 | 0.00 | 28 | 1018.9 |
| 20260505234304 | 50 | 200 | 2.0 | 5.0 | 0.00 | 0.00 | 0.00 | 29 | 1018.8 |
| 20260505233804 | 50 | 139 | 3.0 | 5.0 | 0.00 | 0.00 | 0.00 | 28 | 1019.0 |
| 20260505233304 | 50 | 200 | 3.0 | 9.0 | 0.00 | 0.00 | 0.00 | 28 | 1018.9 |
| 20260505232803 | 50 | 212 | 3.0 | 9.0 | 0.00 | 0.00 | 0.00 | 29 | 1018.9 |
| 20260505232305 | 50 | 97 | 4.0 | 9.0 | 0.00 | 0.00 | 0.00 | 28 | 1018.9 |
| 20260505231304 | 50 | 143 | 3.0 | 8.0 | 0.00 | 0.00 | 0.00 | 30 | 1019.2 |
| 20260505230304 | 50 | 106 | 1.0 | 7.0 | 0.00 | 0.00 | 0.00 | 31 | 1019.2 |
| 20260505225804 | 50 | 99 | 4.0 | 10.0 | 0.00 | 0.00 | 0.00 | 30 | 1019.2 |
| 20260505225306 | 50 | 124 | 3.0 | 8.0 | 0.00 | 0.00 | 0.00 | 30 | 1019.3 |
| 20260505224804 | 50 | 133 | 3.0 | 8.0 | 0.00 | 0.00 | 0.00 | 31 | 1019.4 |
| 20260505224304 | 50 | 145 | 3.0 | 6.0 | 0.00 | 0.00 | 0.00 | 31 | 1019.4 |
| 20260505223804 | 50 | 166 | 2.0 | 9.0 | 0.00 | 0.00 | 0.00 | 30 | 1019.4 |
| 20260505223304 | 50 | 220 | 3.0 | 9.0 | 0.00 | 0.00 | 0.00 | 31 | 1019.5 |
| 20260505222804 | 50 | 167 | 3.0 | 8.0 | 0.00 | 0.00 | 0.00 | 31 | 1019.5 |
| 20260505222306 | 50 | 123 | 2.0 | 7.0 | 0.00 | 0.00 | 0.00 | 31 | 1019.6 |
| 20260505221804 | 50 | 91 | 5.0 | 10.0 | 0.00 | 0.00 | 0.00 | 32 | 1019.6 |
| 20260505221304 | 50 | 136 | 2.0 | 8.0 | 0.00 | 0.00 | 0.00 | 33 | 1019.9 |
| 20260505220304 | 49 | 124 | 3.0 | 8.0 | 0.00 | 0.00 | 0.00 | 32 | 1019.9 |
| 20260505215804 | 49 | 187 | 2.0 | 8.0 | 0.00 | 0.00 | 0.00 | 33 | 1020.0 |
| 20260505214304 | 50 | 93 | 2.0 | 7.0 | 0.00 | 0.00 | 0.00 | 32 | 1020.1 |
| 20260505213804 | 50 | 121 | 4.0 | 9.0 | 0.00 | 0.00 | 0.00 | 33 | 1020.2 |
| 20260505213304 | 50 | 203 | 3.0 | 7.0 | 0.00 | 0.00 | 0.00 | 33 | 1020.1 |
| 20260505212804 | 50 | 182 | 3.0 | 10.0 | 0.00 | 0.00 | 0.00 | 32 | 1020.2 |
| 20260505212305 | 51 | 124 | 5.0 | 10.0 | 0.00 | 0.00 | 0.00 | 33 | 1020.2 |
| 20260505210303 | 49 | 111 | 4.0 | 10.0 | 0.00 | 0.00 | 0.00 | 34 | 1020.6 |
| 20260505205803 | 50 | 161 | 4.0 | 10.0 | 0.00 | 0.00 | 0.00 | 33 | 1020.5 |
| 20260505205305 | 50 | 150 | 4.0 | 15.0 | 0.00 | 0.00 | 0.00 | 33 | 1020.4 |
| 20260505204804 | 50 | 106 | 3.0 | 9.0 | 0.00 | 0.00 | 0.00 | 33 | 1020.4 |
| 20260505204304 | 50 | 226 | 2.0 | 5.0 | 0.00 | 0.00 | 0.00 | 32 | 1020.5 |
| 20260505203804 | 51 | 130 | 4.0 | 9.0 | 0.00 | 0.00 | 0.00 | 33 | 1020.5 |
| 20260505203304 | 51 | 150 | 3.0 | 8.0 | 0.00 | 0.00 | 0.00 | 34 | 1020.6 |
| 20260505202804 | 50 | 112 | 6.0 | 14.0 | 0.00 | 0.00 | 0.00 | 33 | 1020.6 |
| 20260505202306 | 51 | 104 | 3.0 | 7.0 | 0.00 | 0.00 | 0.00 | 32 | 1020.7 |
| 20260505201804 | 51 | 352 | 2.0 | 8.0 | 0.00 | 0.00 | 0.00 | 32 | 1020.7 |
| 20260505201304 | 51 | 94 | 1.0 | 9.0 | 0.00 | 0.00 | 0.00 | 32 | 1020.7 |
| 20260505200803 | 52 | 172 | 4.0 | 9.0 | 0.00 | 0.00 | 0.00 | 33 | 1020.7 |
| 20260505195804 | 51 | 79 | 4.0 | 10.0 | 0.00 | 0.00 | 0.00 | 32 | 1020.7 |
| 20260505195305 | 50 | 102 | 3.0 | 10.0 | 0.00 | 0.00 | 0.00 | 34 | 1020.9 |
| 20260505194804 | 50 | 132 | 4.0 | 9.0 | 0.00 | 0.00 | 0.00 | 33 | 1020.7 |
| 20260505194304 | 50 | 149 | 2.0 | 7.0 | 0.00 | 0.00 | 0.00 | 34 | 1020.8 |
| 20260505193803 | 49 | 120 | 2.0 | 8.0 | 0.00 | 0.00 | 0.00 | 34 | 1020.8 |
| 20260505192804 | 51 | 143 | 5.0 | 13.0 | 0.00 | 0.00 | 0.00 | 32 | 1020.9 |
| 20260505192305 | 51 | 206 | 3.0 | 6.0 | 0.00 | 0.00 | 0.00 | 32 | 1020.9 |
| 20260505191803 | 50 | 102 | 2.0 | 8.0 | 0.00 | 0.00 | 0.00 | 34 | 1021.2 |
| 20260505191304 | 50 | 114 | 3.0 | 7.0 | 0.00 | 0.00 | 0.00 | 32 | 1021.1 |
| 20260505190804 | 51 | 105 | 5.0 | 10.0 | 0.00 | 0.00 | 0.00 | 33 | 1021.0 |
| 20260505185804 | 50 | 186 | 3.0 | 6.0 | 0.00 | 0.00 | 0.00 | 34 | 1020.9 |
| 20260505185305 | 50 | 132 | 4.0 | 9.0 | 0.00 | 0.00 | 0.00 | 33 | 1021.1 |
| 20260505184804 | 50 | 111 | 3.0 | 8.0 | 0.00 | 0.00 | 0.00 | 32 | 1021.1 |
| 20260505184304 | 50 | 117 | 2.0 | 10.0 | 0.00 | 0.00 | 0.00 | 32 | 1021.2 |
| 20260505182804 | 49 | 121 | 2.0 | 7.0 | 0.00 | 0.00 | 0.00 | 34 | 1021.3 |
| 20260505182306 | 50 | 123 | 3.0 | 6.0 | 0.00 | 0.00 | 0.00 | 32 | 1021.3 |
| 20260505181804 | 50 | 117 | 3.0 | 6.0 | 0.00 | 0.00 | 0.00 | 31 | 1021.1 |
| 20260505181304 | 51 | 208 | 4.0 | 14.0 | 0.00 | 0.00 | 0.00 | 31 | 1021.1 |
| 20260505180804 | 51 | 152 | 5.0 | 12.0 | 0.00 | 0.00 | 0.00 | 31 | 1021.1 |
| 20260505175804 | 51 | 110 | 5.0 | 12.0 | 0.00 | 0.00 | 0.00 | 31 | 1021.3 |
| 20260505175305 | 51 | 99 | 5.0 | 12.0 | 0.00 | 0.00 | 0.00 | 32 | 1021.2 |
| 20260505173804 | 52 | 103 | 6.0 | 12.0 | 0.00 | 0.00 | 0.00 | 32 | 1021.1 |
| 20260505173304 | 51 | 133 | 3.0 | 10.0 | 0.00 | 0.00 | 0.00 | 33 | 1021.0 |
| 20260505171804 | 51 | 114 | 6.0 | 12.0 | 0.00 | 0.00 | 0.00 | 30 | 1021.1 |
| 20260505170804 | 51 | 124 | 4.0 | 10.0 | 0.00 | 0.00 | 0.00 | 36 | 1021.2 |
| 20260505170304 | 50 | 97 | 3.0 | 10.0 | 0.00 | 0.00 | 0.00 | 36 | 1021.0 |
| 20260505165804 | 51 | 60 | 2.0 | 9.0 | 0.00 | 0.00 | 0.00 | 36 | 1021.2 |
| 20260505165306 | 50 | 106 | 5.0 | 9.0 | 0.00 | 0.00 | 0.00 | 37 | 1021.0 |
| 20260505164304 | 48 | 116 | 3.0 | 10.0 | 0.00 | 0.00 | 0.00 | 40 | 1021.3 |
| 20260505163804 | 47 | 112 | 3.0 | 10.0 | 0.00 | 0.00 | 0.00 | 41 | 1021.3 |
| 20260505163303 | 47 | 61 | 3.0 | 10.0 | 0.00 | 0.00 | 0.00 | 42 | 1021.2 |
| 20260505162804 | 45 | 37 | 2.0 | 8.0 | 0.00 | 0.00 | 0.00 | 46 | 1021.1 |
| 20260505162306 | 44 | 128 | 3.0 | 9.0 | 0.00 | 0.00 | 0.00 | 45 | 1021.3 |
| 20260505161804 | 44 | 83 | 2.0 | 6.0 | 0.00 | 0.00 | 0.00 | 47 | 1021.3 |
| 20260505161303 | 43 | 102 | 4.0 | 9.0 | 0.00 | 0.00 | 0.00 | 47 | 1020.9 |
| 20260505160804 | 43 | 120 | 2.0 | 7.0 | 0.00 | 0.00 | 0.00 | 47 | 1021.2 |
| 20260505160304 | 43 | 45 | 2.0 | 8.0 | 0.00 | 0.00 | 0.00 | 49 | 1021.3 |
| 20260505153304 | 46 | 98 | 1.0 | 6.0 | 0.00 | 0.00 | 0.00 | 47 | 1021.2 |
| 20260505152804 | 46 | 99 | 4.0 | 7.0 | 0.00 | 0.00 | 0.00 | 44 | 1021.4 |
| 20260505151304 | 44 | 98 | 3.0 | 8.0 | 0.00 | 0.00 | 0.00 | 49 | 1021.3 |
| 20260505150804 | 44 | 100 | 3.0 | 8.0 | 0.00 | 0.00 | 0.00 | 49 | 1021.3 |
| 20260505140304 | 39 | 46 | 2.0 | 6.0 | 0.00 | 0.00 | 0.00 | 57 | 1021.1 |
| 20260505130304 | 38 | 86 | 1.0 | 3.0 | 0.00 | 0.00 | 0.00 | 58 | 1021.2 |
| 20260505124303 | 38 | 109 | 1.0 | 3.0 | 0.00 | 0.00 | 0.00 | 59 | 1021.0 |
| 20260505122804 | 37 | 117 | 1.0 | 2.0 | 0.00 | 0.00 | 0.00 | 60 | 1021.0 |
| 20260505122305 | 37 | 118 | 2.0 | 3.0 | 0.00 | 0.00 | 0.00 | 59 | 1021.0 |
| 20260505121804 | 37 | 105 | 2.0 | 5.0 | 0.00 | 0.00 | 0.00 | 59 | 1021.1 |
| 20260505121304 | 37 | 107 | 1.0 | 5.0 | 0.00 | 0.00 | 0.00 | 58 | 1020.8 |
| 20260505120804 | 37 | 111 | 1.0 | 2.0 | 0.00 | 0.00 | 0.00 | 58 | 1020.9 |
| 20260505120304 | 37 | 119 | 0.0 | 2.0 | 0.00 | 0.00 | 0.00 | 57 | 1021.1 |
| 20260505115803 | 37 | 112 | 1.0 | 3.0 | 0.00 | 0.00 | 0.00 | 57 | 1020.9 |
| 20260505115305 | 37 | 120 | 2.0 | 3.0 | 0.00 | 0.00 | 0.00 | 57 | 1021.0 |
| 20260505114304 | 37 | 102 | 1.0 | 2.0 | 0.00 | 0.00 | 0.00 | 57 | 1021.0 |
| 20260505113804 | 37 | 112 | 1.0 | 2.0 | 0.00 | 0.00 | 0.00 | 57 | 1020.9 |
| 20260505113304 | 37 | 114 | 0.0 | 2.0 | 0.00 | 0.00 | 0.00 | 57 | 1020.8 |
| 20260505112804 | 37 | 127 | 0.0 | 2.0 | 0.00 | 0.00 | 0.00 | 56 | 1021.0 |
| 20260505112305 | 38 | 109 | 1.0 | 2.0 | 0.00 | 0.00 | 0.00 | 56 | 1021.1 |
| 20260505111304 | 38 | 124 | 1.0 | 2.0 | 0.00 | 0.00 | 0.00 | 56 | 1020.9 |
| 20260505110804 | 38 | 123 | 1.0 | 3.0 | 0.00 | 0.00 | 0.00 | 56 | 1020.7 |
| 20260505110304 | 38 | 111 | 1.0 | 2.0 | 0.00 | 0.00 | 0.00 | 56 | 1020.9 |
| 20260505101804 | 38 | 210 | 1.0 | 3.0 | 0.00 | 0.00 | 0.00 | 58 | 1020.7 |
| 20260505101304 | 38 | 154 | 1.0 | 6.0 | 0.00 | 0.00 | 0.00 | 58 | 1020.6 |
| 20260505095803 | 39 | 228 | 2.0 | 5.0 | 0.00 | 0.00 | 0.00 | 58 | 1020.6 |
| 20260505095305 | 39 | 137 | 2.0 | 5.0 | 0.00 | 0.00 | 0.00 | 59 | 1020.4 |
| 20260505094804 | 39 | 123 | 2.0 | 5.0 | 0.00 | 0.00 | 0.00 | 59 | 1020.3 |
| 20260505094304 | 40 | 123 | 2.0 | 6.0 | 0.00 | 0.00 | 0.00 | 59 | 1020.4 |
| 20260505093804 | 40 | 111 | 2.0 | 5.0 | 0.00 | 0.00 | 0.00 | 59 | 1020.2 |
| 20260505093304 | 39 | 103 | 2.0 | 5.0 | 0.00 | 0.00 | 0.00 | 60 | 1020.1 |
| 20260505092804 | 39 | 105 | 3.0 | 8.0 | 0.00 | 0.00 | 0.00 | 59 | 1020.3 |
| 20260505092305 | 39 | 119 | 3.0 | 7.0 | 0.00 | 0.00 | 0.00 | 60 | 1020.4 |
| 20260505091804 | 39 | 115 | 2.0 | 6.0 | 0.00 | 0.00 | 0.00 | 60 | 1020.2 |
| 20260505091304 | 40 | 109 | 2.0 | 9.0 | 0.00 | 0.00 | 0.00 | 60 | 1020.2 |
| 20260505090804 | 40 | 131 | 2.0 | 3.0 | 0.00 | 0.00 | 0.00 | 60 | 1020.1 |
| 20260505090304 | 40 | 114 | 2.0 | 5.0 | 0.00 | 0.00 | 0.00 | 60 | 1020.1 |
| 20260505085304 | 40 | 172 | 1.0 | 3.0 | 0.00 | 0.00 | 0.00 | 59 | 1020.0 |
| 20260505084804 | 40 | 115 | 2.0 | 3.0 | 0.00 | 0.00 | 0.00 | 59 | 1020.3 |
| 20260505084303 | 40 | 125 | 0.0 | 2.0 | 0.00 | 0.00 | 0.00 | 59 | 1020.1 |
| 20260505083804 | 40 | 138 | 2.0 | 5.0 | 0.00 | 0.00 | 0.00 | 58 | 1020.1 |
| 20260505083304 | 40 | 32 | 2.0 | 3.0 | 0.00 | 0.00 | 0.00 | 58 | 1020.2 |
| 20260505082804 | 40 | 135 | 1.0 | 3.0 | 0.00 | 0.00 | 0.00 | 58 | 1020.3 |
| 20260505082305 | 40 | 179 | 1.0 | 3.0 | 0.00 | 0.00 | 0.00 | 58 | 1020.1 |
| 20260505081304 | 40 | 132 | 1.0 | 3.0 | 0.00 | 0.00 | 0.00 | 57 | 1020.0 |
| 20260505080804 | 41 | 141 | 1.0 | 3.0 | 0.00 | 0.00 | 0.00 | 56 | 1020.1 |
| 20260505080303 | 41 | 181 | 1.0 | 3.0 | 0.00 | 0.00 | 0.00 | 56 | 1020.0 |
| 20260505075804 | 41 | 158 | 1.0 | 2.0 | 0.00 | 0.00 | 0.00 | 55 | 1020.0 |
| 20260505075304 | 41 | 127 | 1.0 | 2.0 | 0.00 | 0.00 | 0.00 | 55 | 1020.1 |
| 20260505074804 | 41 | 156 | 0.0 | 2.0 | 0.00 | 0.00 | 0.00 | 55 | 1020.1 |
| 20260505074304 | 41 | 170 | 1.0 | 3.0 | 0.00 | 0.00 | 0.00 | 55 | 1020.1 |
| 20260505073804 | 41 | 118 | 1.0 | 2.0 | 0.00 | 0.00 | 0.00 | 56 | 1020.1 |
| 20260505073305 | 41 | 101 | 0.0 | 1.0 | 0.00 | 0.00 | 0.00 | 56 | 1020.1 |
| 20260505072305 | 41 | 167 | 0.0 | 2.0 | 0.00 | 0.00 | 0.00 | 55 | 1020.0 |
| 20260505071304 | 41 | 193 | 1.0 | 3.0 | 0.00 | 0.00 | 0.00 | 55 | 1020.1 |
| 20260505070804 | 41 | 226 | 1.0 | 2.0 | 0.00 | 0.00 | 0.00 | 54 | 1020.0 |
| 20260505065804 | 41 | 191 | 1.0 | 2.0 | 0.00 | 0.00 | 0.00 | 52 | 1019.9 |
| 20260505065304 | 41 | 182 | 1.0 | 3.0 | 0.00 | 0.00 | 0.00 | 52 | 1019.9 |
| 20260505063804 | 42 | 179 | 2.0 | 3.0 | 0.00 | 0.00 | 0.00 | 49 | 1020.1 |
| 20260505062304 | 42 | 183 | 2.0 | 6.0 | 0.00 | 0.00 | 0.00 | 47 | 1019.9 |
| 20260505061803 | 43 | 193 | 1.0 | 3.0 | 0.00 | 0.00 | 0.00 | 46 | 1019.9 |
| 20260505060804 | 43 | 229 | 2.0 | 6.0 | 0.00 | 0.00 | 0.00 | 45 | 1019.8 |
| 20260505054804 | 44 | 140 | 2.0 | 6.0 | 0.00 | 0.00 | 0.00 | 38 | 1019.6 |
| 20260505054304 | 44 | 139 | 2.0 | 7.0 | 0.00 | 0.00 | 0.00 | 37 | 1019.5 |
| 20260505053804 | 44 | 144 | 2.0 | 10.0 | 0.00 | 0.00 | 0.00 | 37 | 1019.6 |
| 20260505052844 | 44 | 125 | 2.0 | 7.0 | 0.00 | 0.00 | 0.00 | 37 | 1019.4 |
| 20260505052344 | 44 | 140 | 2.0 | 5.0 | 0.00 | 0.00 | 0.00 | 37 | 1019.4 |
| 20260505051845 | 45 | 102 | 3.0 | 5.0 | 0.00 | 0.00 | 0.00 | 36 | 1019.2 |
| 20260505050804 | 45 | 130 | 2.0 | 5.0 | 0.00 | 0.00 | 0.00 | 36 | 1019.2 |
| 20260505050304 | 45 | 148 | 1.0 | 5.0 | 0.00 | 0.00 | 0.00 | 36 | 1019.2 |
| 20260505041304 | 46 | 116 | 0.0 | 2.0 | 0.00 | 0.00 | 0.00 | 36 | 1018.9 |
| 20260505040804 | 46 | 121 | 1.0 | 2.0 | 0.00 | 0.00 | 0.00 | 36 | 1018.6 |
| 20260505040304 | 46 | 133 | 2.0 | 3.0 | 0.00 | 0.00 | 0.00 | 35 | 1018.8 |